Regional Weather Roundup
Issued by NWS

Home | Current Version | Previous Version | Text Only | Print | Product List | Glossary Off
Versions: 1 2 3 4 5 6 7 8 9 10 11 12 13 14 15 16 17 18 19 20 21 22 23 24 25 26 27 28 29 30 31 32 33 34 35 36 37 38 39 40 41 42 43 44 45 46 47 48 49 50

000
ASUS43 KMKX 251020
RWRWI

WISCONSIN REGIONAL WEATHER ROUNDUP
NATIONAL WEATHER SERVICE MILWAUKEE/SULLIVAN WI
500 AM CDT WED APR 25 2018

NOTE: "FAIR" INDICATES FEW OR NO CLOUDS BELOW 12,000 FEET WITH NO
SIGNIFICANT WEATHER AND/OR OBSTRUCTIONS TO VISIBILITY.

WIZ001-002-006>008-014>016-023>028-251100-
NORTHWEST WISCONSIN

CITY           SKY/WX    TMP DP  RH WIND       PRES   REMARKS
SUPERIOR ARPT  FAIR      25  21  85 CALM      30.28S
ASHLAND        FAIR      26  24  92 CALM      30.26S
HAYWARD        FAIR      26  22  84 CALM      30.25R
SIREN          FAIR      28  22  77 CALM      30.26S
CUMBERLAND     FAIR      32  23  69 N6        30.23F WCI  26
RICE LAKE      FAIR      33  26  76 N3        30.25S
CHETEK         FAIR      30  26  87 CALM      30.23F
LADYSMITH      FAIR      29  25  84 NW5       30.24S WCI  24
EAU CLAIRE     FAIR      35  26  69 N8        30.22R WCI  29
MENOMONIE      FAIR      36  26  69 CALM      30.23S
NEW RICHMOND   FAIR      32  24  72 N6        30.24F WCI  27
OSCEOLA        FAIR      33  25  73 N3        30.28F
$$

WIZ003>005-009-010-017-018-251100-
NORTH CENTRAL WISCONSIN

CITY           SKY/WX    TMP DP  RH WIND       PRES   REMARKS
MANITOWISH WTR FAIR      26  26 100 CALM      30.20S
ARBOR VITAE    FAIR      31  30  94 CALM      30.19S
WOODRUFF       FAIR      31  30  94 CALM      30.19S
RHINELANDER    FAIR      30  28  92 N3        30.18S
EAGLE RIVER    FAIR      28  27  95 N3        30.18S
LAND O LAKES   FAIR      27  25  94 CALM      30.19F
PHILLIPS       FAIR      28  27  96 N3        30.20S
TOMAHAWK       FAIR      28  28  98 N3        30.19S
MEDFORD        FAIR      30  29  94 N7        30.18S WCI  23
MERRILL        FAIR      30  30 100 N5        30.19S WCI  25
$$

WIZ029-030-035-036-043>047-251100-
CENTRAL WISCONSIN

CITY           SKY/WX    TMP DP  RH WIND       PRES   REMARKS
WAUSAU         FAIR      33  30  88 N8        30.16R WCI  26
MOSINEE        FAIR      34  32  93 N9        30.18R WCI  26
MARSHFIELD     FAIR      35  32  88 N8        30.16R WCI  29
STEVENS POINT  FAIR      33  33 100 N6        30.17R WCI  27
WAUPACA        FAIR      39  35  83 N6        30.17R WCI  35
WAUTOMA        FAIR      38  34  85 N3        30.16R
WISC RAPIDS    FAIR      36  32  85 N8        30.18R WCI  30
CAMP DOUGLAS   FAIR      31  31  99 W6        30.17R WCI  26
$$

WIZ011>013-019>022-031-037>040-048>050-251100-
NORTHEAST WISCONSIN

CITY           SKY/WX    TMP DP  RH WIND       PRES   REMARKS
ANTIGO         FAIR      30  28  91 N8        30.16S WCI  23
SHAWANO        FAIR      37  32  82 N8        30.16S WCI  31
OCONTO         FAIR      35  30  82 N7        30.15S WCI  29
STURGEON BAY   FAIR      35  30  82 N12       30.14S WCI  27
GREEN BAY      FAIR      38  33  82 N12       30.14S WCI  30
MANITOWOC      FAIR      38  35  89 N10       30.12  WCI  31
APPLETON       FAIR      37  32  81 N10       30.13R WCI  30
CLINTONVILLE   FAIR      37  32  82 N7        30.16S WCI  31
OSHKOSH        FAIR      39  35  86 N10       30.14R WCI  32
$$

WIZ032>034-041-042-053>061-251100-
SOUTHWEST WISCONSIN

CITY           SKY/WX    TMP DP  RH WIND       PRES   REMARKS
LA CROSSE      FAIR      40  34  79 NW7       30.19R
SPARTA         FAIR      32  32  97 CALM      30.20R
VIROQUA        FAIR      36  36  98 N7        30.16S WCI  31
BOSCOBEL       FAIR      38  32  79 CALM      30.16R
PRAIRIE DU CHI FAIR      45  33  63 N5        30.16S
PLATTEVILLE    FAIR      40  32  73 N6        30.14R
$$

WIZ056-057-062-063-064-067-068-251100-
SOUTH CENTRAL WISCONSIN

CITY           SKY/WX    TMP DP  RH WIND       PRES   REMARKS
REEDSBURG      FAIR      41  37  83 N3        30.15S
BARABOO/DELLS  FAIR      40  35  81 N5        30.15R
LONE ROCK      MOCLDY    43  36  76 N6        30.15R
MINERAL POINT  FAIR      41  32  70 N7        30.14R
MADISON        FAIR      40  30  67 N5        30.13R
MIDDLETON      FAIR      40  32  73 N3        30.14R
WATERTOWN      FAIR      40  33  76 N6        30.11S
MONROE         FAIR      41  30  65 N14       30.11R
JANESVILLE     FAIR      43  32  65 CALM      30.12R
$$

WIZ051-052-058>065-066-070>072-251100-
SOUTHEAST WISCONSIN

CITY           SKY/WX    TMP DP  RH WIND       PRES   REMARKS
MILWAUKEE      FAIR      42  34  73 N21G31    30.10R
WAUKESHA       FAIR      37  32  81 N6        30.12R WCI  33
MILWAUKEE/TIMM FAIR      39  32  75 N10       30.11S WCI  32
RACINE         FAIR      39  34  82 N20G26    30.11R WCI  29
BURLINGTON     FAIR      41  33  72 N10       30.10R
KENOSHA        FAIR      41  32  70 N15       30.09R
FOND DU LAC    MOCLDY    41  35  79 N9        30.13S
SHEBOYGAN      CLOUDY    40  36  86 N8        30.11S WCI  34
WEST BEND      FAIR      36  34  93 CALM      30.11S
JUNEAU         FAIR      39  34  83 N6        30.14R WCI  35
$$

LSZ147-162-251100-
LAKE SUPERIOR

STATION/POSITION TIME  TEMP    WIND        PRES    WAVE
                       AIR SEA DIR/SP/G            HT/PER
                 (UTC) (F)     (DEG/KT/KT) (MB)    (FT/S)
DEVILS ISLAND    1000   35      10/ 11/ 11 1025.8F
SAXON HARBOR     0940   27     200/  2/  3 1024.0S
$$

LMZ867-665-643>646-251100-
LAKE MICHIGAN

STATION/POSITION TIME  TEMP    WIND        PRES    WAVE
                       AIR SEA DIR/SP/G            HT/PER
                 (UTC) (F)     (DEG/KT/KT) (MB)    (FT/S)
NORTHPORT PIER   0940   35                 1020.3R
KEWAUNEE LAKESHO 0954   38     340/ 11/ 15 1019.2R
SHEBOYGAN LAKESH 1000   41     330/  8/  9 1019.9F
PORT WASHINGTON  0940   40     360/  4/  7 1020.7S
MILWAUKEE LAKESH 1000   41     360/ 16/ 20   N/A
KENOSHA   LAKESH 1000   41                 1018.6
$$

TC  - TEMPERATURE IN CELSIUS
VSB - VISIBILITY IN STATUTE MILES
WCI - WIND CHILL INDEX
HX  - HEAT INDEX





USA.gov is the U.S. government's official web portal to all federal, state and local government web resources and services.